| time (UTC) | temp C | wind direction | speed KPH | gust KPH | rain 1hr cm | rain 24hr cm | rain mn cm | humidity % | barometer mb |
| 20260504081512 | 12 | 293 | 3.2 | 12.9 | 0.00 | 0.00 | 0.00 | 55 | 998.7 |
| 20260504044541 | 11 | 213 | 1.6 | 6.4 | 0.00 | 0.00 | 0.00 | 53 | 1002.3 |
| 20260504043036 | 12 | 157 | 1.6 | 6.4 | 0.00 | 0.00 | 0.00 | 51 | 1002.5 |
| 20260504041532 | 12 | 214 | 0.0 | 1.6 | 0.00 | 0.00 | 0.00 | 50 | 1002.7 |
| 20260504040031 | 13 | 190 | 1.6 | 6.4 | 0.00 | 0.00 | 0.00 | 49 | 1003.0 |
| 20260504034544 | 13 | 144 | 0.0 | 4.8 | 0.00 | 0.00 | 0.00 | 49 | 1003.3 |
| 20260504033028 | 13 | 210 | 0.0 | 4.8 | 0.00 | 0.00 | 0.00 | 47 | 1003.5 |
| 20260504031526 | 13 | 153 | 0.0 | 1.6 | 0.00 | 0.00 | 0.00 | 48 | 1003.6 |
| 20260504030039 | 13 | 237 | 0.0 | 3.2 | 0.00 | 0.00 | 0.00 | 47 | 1003.8 |
| 20260504024524 | 13 | 163 | 0.0 | 6.4 | 0.00 | 0.00 | 0.00 | 48 | 1003.9 |
| 20260504023026 | 13 | 231 | 0.0 | 1.6 | 0.00 | 0.00 | 0.00 | 48 | 1004.0 |
| 20260504021522 | 13 | 230 | 0.0 | 1.6 | 0.00 | 0.00 | 0.00 | 48 | 1003.9 |
| 20260504020022 | 13 | 63 | 0.0 | 0.0 | 0.00 | 0.00 | 0.00 | 49 | 1003.9 |
| 20260504014534 | 13 | 63 | 0.0 | 0.0 | 0.00 | 0.00 | 0.00 | 47 | 1003.9 |
| 20260504013022 | 15 | 65 | 0.0 | 1.6 | 0.00 | 0.00 | 0.00 | 45 | 1004.0 |
| 20260504011521 | 16 | 65 | 0.0 | 1.6 | 0.00 | 0.00 | 0.00 | 42 | 1003.9 |
| 20260504010022 | 17 | 83 | 0.0 | 3.2 | 0.00 | 0.00 | 0.00 | 40 | 1003.9 |
| 20260504004520 | 18 | 103 | 1.6 | 4.8 | 0.00 | 0.00 | 0.00 | 38 | 1003.9 |
| 20260504003028 | 20 | 269 | 0.0 | 6.4 | 0.00 | 0.00 | 0.00 | 38 | 1004.1 |
| 20260504001518 | 20 | 6 | 0.0 | 9.7 | 0.00 | 0.00 | 0.00 | 37 | 1004.2 |
| 20260504000018 | 20 | 67 | 3.2 | 12.9 | 0.00 | 0.00 | 0.00 | 33 | 1004.1 |
| 20260503234530 | 21 | 333 | 6.4 | 19.3 | 0.00 | 0.00 | 0.00 | 34 | 1004.1 |
| 20260503233016 | 21 | 310 | 14.5 | 20.9 | 0.00 | 0.00 | 0.00 | 32 | 1004.2 |
| 20260503231515 | 21 | 334 | 8.0 | 19.3 | 0.00 | 0.00 | 0.00 | 30 | 1004.3 |
| 20260503230014 | 21 | 325 | 3.2 | 17.7 | 0.00 | 0.00 | 0.00 | 32 | 1004.3 |
| 20260503224513 | 22 | 318 | 4.8 | 22.5 | 0.00 | 0.00 | 0.00 | 33 | 1004.2 |
| 20260503223013 | 21 | 323 | 8.0 | 30.6 | 0.00 | 0.00 | 0.00 | 32 | 1004.3 |
| 20260503221513 | 21 | 320 | 9.7 | 29.0 | 0.00 | 0.00 | 0.00 | 34 | 1004.3 |
| 20260503220011 | 21 | 302 | 4.8 | 19.3 | 0.00 | 0.00 | 0.00 | 32 | 1004.3 |
| 20260503214513 | 21 | 359 | 8.0 | 33.8 | 0.00 | 0.00 | 0.00 | 31 | 1004.4 |
| 20260503213008 | 21 | 319 | 4.8 | 20.9 | 0.00 | 0.00 | 0.00 | 33 | 1004.4 |
| 20260503211507 | 21 | 330 | 11.3 | 33.8 | 0.00 | 0.00 | 0.00 | 33 | 1004.6 |
| 20260503210007 | 21 | 335 | 6.4 | 30.6 | 0.00 | 0.00 | 0.00 | 36 | 1004.7 |
| 20260503204505 | 21 | 326 | 16.1 | 27.4 | 0.00 | 0.00 | 0.00 | 36 | 1004.9 |
| 20260503203007 | 21 | 329 | 16.1 | 32.2 | 0.00 | 0.00 | 0.00 | 34 | 1005.1 |
| 20260503201504 | 21 | 335 | 16.1 | 35.4 | 0.00 | 0.00 | 0.00 | 36 | 1005.1 |
| 20260503200004 | 21 | 340 | 16.1 | 30.6 | 0.00 | 0.00 | 0.00 | 34 | 1005.2 |
| 20260503194502 | 21 | 311 | 8.0 | 27.4 | 0.00 | 0.00 | 0.00 | 38 | 1005.2 |
| 20260503193000 | 21 | 331 | 16.1 | 30.6 | 0.00 | 0.00 | 0.00 | 34 | 1005.5 |
| 20260503191632 | 20 | 340 | 16.1 | 33.8 | 0.00 | 0.00 | 0.00 | 35 | 1005.5 |
| 20260503190058 | 21 | 13 | 11.3 | 30.6 | 0.00 | 0.00 | 0.00 | 37 | 1005.6 |
| 20260503184600 | 20 | 3 | 19.3 | 29.0 | 0.00 | 0.00 | 0.00 | 37 | 1005.5 |
| 20260503183114 | 20 | 359 | 16.1 | 38.6 | 0.00 | 0.00 | 0.00 | 40 | 1005.6 |
| 20260503181556 | 20 | 338 | 12.9 | 33.8 | 0.00 | 0.00 | 0.00 | 37 | 1005.7 |
| 20260503180054 | 20 | 6 | 14.5 | 38.6 | 0.00 | 0.00 | 0.00 | 37 | 1005.9 |
| 20260503174552 | 19 | 323 | 17.7 | 33.8 | 0.00 | 0.00 | 0.00 | 38 | 1006.0 |
| 20260503173115 | 20 | 335 | 20.9 | 30.6 | 0.00 | 0.00 | 0.00 | 39 | 1006.0 |
| 20260503171550 | 19 | 307 | 12.9 | 22.5 | 0.00 | 0.00 | 0.00 | 46 | 1006.1 |